PD2SKZ-12 Weather Reports


Display with metric or nautical units.
time (UTC)temp
F
wind
direction
speed
MPH
gust
MPH
rain 1hr
in
rain 24hr
in
rain mn
in
humidity
%
barometer
mb
20260506013539 49 327 3.0 7.0 0.00 0.00 0.00 83 1010.4
20260506013039 49 314 3.0 7.0 0.00 0.00 0.00 83 1010.4
20260506012539 49 310 2.0 5.0 0.00 0.00 0.00 83 1010.4
20260506012039 49 306 3.0 7.0 0.00 0.00 0.00 83 1010.5
20260506011539 49 332 8.0 10.0 0.00 0.00 0.00 83 1010.5
20260506011039 49 311 3.0 6.0 0.00 0.00 0.00 83 1010.5
20260506010539 49 292 5.0 7.0 0.00 0.00 0.00 83 1010.5
20260506010059 49 336 6.0 8.0 0.00 0.00 0.00 82 1010.6
20260506005559 49 318 6.0 7.0 0.00 0.00 0.00 82 1010.7
20260506005039 49 333 5.0 9.0 0.00 0.00 0.00 82 1010.7
20260506004621 49 339 3.0 9.0 0.00 0.00 0.00 82 1010.8
20260506004039 49 321 5.0 9.0 0.00 0.00 0.00 82 1010.8
20260506003539 49 330 3.0 7.0 0.00 0.00 0.00 82 1010.8
20260506003039 49 296 5.0 6.0 0.00 0.00 0.00 81 1010.8
20260506002539 49 321 5.0 6.0 0.00 0.00 0.00 81 1010.9
20260506002039 49 334 4.0 5.0 0.00 0.00 0.00 81 1011.0
20260506001539 49 36 4.0 7.0 0.00 0.00 0.00 80 1011.0
20260506001039 49 354 4.0 4.0 0.00 0.00 0.00 80 1011.0
20260506000559 49 310 4.0 4.0 0.00 0.00 0.00 80 1011.0
20260506000039 49 326 3.0 6.0 0.00 0.00 0.00 80 1011.1
20260505235539 49 356 2.0 5.0 0.00 0.00 0.00 80 1011.1
20260505235059 49 271 2.0 5.0 0.00 0.00 0.00 80 1011.1
20260505234539 49 25 5.0 6.0 0.00 0.00 0.00 80 1011.1
20260505234039 49 330 3.0 6.0 0.00 0.00 0.00 80 1011.1
20260505233539 48 21 1.0 4.0 0.00 0.00 0.00 79 1011.2
20260505233059 49 21 4.0 8.0 0.00 0.00 0.00 79 1011.2
20260505232539 49 313 3.0 4.0 0.00 0.00 0.00 78 1011.3
20260505232059 49 336 4.0 4.0 0.00 0.00 0.00 78 1011.3
20260505231539 49 283 4.0 5.0 0.00 0.00 0.00 78 1011.3
20260505231040 49 47 5.0 6.0 0.00 0.00 0.00 78 1011.4
20260505230559 49 310 2.0 3.0 0.00 0.00 0.00 78 1011.4
20260505230039 49 3 4.0 5.0 0.00 0.00 0.00 77 1011.4
20260505225539 49 36 3.0 5.0 0.00 0.00 0.00 77 1011.4
20260505225059 49 298 4.0 6.0 0.00 0.00 0.00 77 1011.5
20260505224539 49 301 4.0 5.0 0.00 0.00 0.00 77 1011.5
20260505224039 49 312 3.0 7.0 0.00 0.00 0.00 77 1011.4
20260505223539 49 6 3.0 9.0 0.00 0.00 0.00 77 1011.4
20260505223039 49 329 4.0 7.0 0.00 0.00 0.00 78 1011.4
20260505222539 49 31 2.0 7.0 0.00 0.00 0.00 78 1011.5
20260505222039 49 296 4.0 6.0 0.00 0.00 0.00 78 1011.5
20260505221539 49 319 3.0 4.0 0.00 0.00 0.00 78 1011.5
20260505221039 49 338 5.0 7.0 0.00 0.00 0.00 78 1011.6
20260505220539 49 354 3.0 5.0 0.00 0.00 0.00 77 1011.6
20260505220039 49 325 4.0 7.0 0.00 0.00 0.00 77 1011.7
20260505215539 50 348 5.0 7.0 0.00 0.00 0.00 77 1011.7
20260505215039 50 292 3.0 4.0 0.00 0.00 0.00 77 1011.7
20260505214539 50 326 2.0 7.0 0.00 0.00 0.00 76 1011.8
20260505214039 50 345 4.0 6.0 0.00 0.00 0.00 76 1011.8
20260505213541 50 337 3.0 5.0 0.00 0.00 0.00 76 1011.8
20260505213039 50 306 4.0 5.0 0.00 0.00 0.00 76 1011.8
20260505212539 50 314 3.0 5.0 0.00 0.00 0.00 75 1011.8
20260505212039 50 310 4.0 5.0 0.00 0.00 0.00 76 1011.9
20260505211539 50 291 4.0 5.0 0.00 0.00 0.00 75 1011.9
20260505211039 50 298 4.0 6.0 0.00 0.00 0.00 75 1011.8
20260505210540 51 337 6.0 8.0 0.00 0.00 0.00 75 1011.9
20260505210039 51 284 6.0 10.0 0.00 0.00 0.00 75 1011.9
20260505205539 51 310 6.0 8.0 0.00 0.00 0.00 75 1011.9
20260505205039 51 325 3.0 7.0 0.00 0.00 0.00 75 1012.0
20260505204539 51 305 5.0 7.0 0.00 0.00 0.00 74 1011.9
20260505204039 51 337 4.0 6.0 0.00 0.00 0.00 74 1012.0
20260505203539 51 69 1.0 8.0 0.00 0.00 0.00 74 1012.0
20260505203039 51 313 5.0 9.0 0.00 0.00 0.00 74 1012.0
20260505202539 51 350 5.0 10.0 0.00 0.00 0.00 74 1012.0
20260505202040 51 312 4.0 8.0 0.00 0.00 0.00 74 1011.9
20260505201539 51 300 3.0 8.0 0.00 0.00 0.00 74 1011.9
20260505201059 51 291 5.0 8.0 0.00 0.00 0.00 74 1011.8
20260505200539 51 344 2.0 6.0 0.00 0.00 0.00 74 1011.9
20260505200041 52 350 6.0 8.0 0.00 0.00 0.00 74 1011.9
20260505195559 52 306 4.0 5.0 0.00 0.00 0.00 74 1011.9
20260505195039 52 302 1.0 6.0 0.00 0.00 0.00 74 1011.8
20260505194539 52 298 4.0 8.0 0.00 0.00 0.00 74 1011.8
20260505194039 52 305 6.0 10.0 0.00 0.00 0.00 74 1011.7
20260505193540 52 314 7.0 10.0 0.00 0.00 0.00 74 1011.6
20260505193039 53 316 4.0 4.0 0.00 0.00 0.00 73 1011.6
20260505192539 53 352 5.0 9.0 0.00 0.00 0.00 73 1011.5
20260505192039 53 299 6.0 10.0 0.00 0.00 0.00 72 1011.4
20260505191539 53 316 3.0 6.0 0.00 0.00 0.00 73 1011.3
20260505191040 53 280 5.0 8.0 0.00 0.00 0.00 73 1011.3
20260505190539 53 299 5.0 8.0 0.00 0.00 0.00 72 1011.2
20260505190039 53 324 4.0 9.0 0.00 0.00 0.00 72 1011.2
20260505185539 54 338 6.0 12.0 0.00 0.00 0.00 72 1011.1
20260505185040 54 294 4.0 11.0 0.00 0.00 0.00 71 1011.1
20260505184559 54 318 3.0 5.0 0.00 0.00 0.00 71 1011.1
20260505184119 54 309 7.0 10.0 0.00 0.00 0.00 70 1011.1
20260505183539 55 289 6.0 11.0 0.00 0.00 0.00 70 1011.1
20260505183040 55 355 5.0 11.0 0.00 0.00 0.00 69 1010.9
20260505182542 55 300 5.0 5.0 0.00 0.00 0.00 69 1010.9
20260505182039 55 302 7.0 10.0 0.00 0.00 0.00 69 1010.8
20260505181539 55 319 4.0 8.0 0.00 0.00 0.00 68 1010.9
20260505181039 55 276 5.0 7.0 0.00 0.00 0.00 68 1010.9
20260505180539 56 82 5.0 9.0 0.00 0.00 0.00 67 1010.9
20260505180039 56 309 4.0 5.0 0.00 0.00 0.00 67 1010.9
20260505175539 56 289 3.0 11.0 0.00 0.00 0.00 67 1010.9
20260505175040 57 348 6.0 13.0 0.00 0.00 0.00 65 1010.9
20260505174539 57 24 6.0 8.0 0.00 0.00 0.00 64 1010.9
20260505174039 57 309 4.0 10.0 0.00 0.00 0.00 64 1011.0
20260505173539 57 129 5.0 13.0 0.00 0.00 0.00 64 1010.9
20260505173040 57 311 7.0 11.0 0.00 0.00 0.00 63 1011.0
20260505172540 58 303 2.0 5.0 0.00 0.00 0.00 63 1010.9
20260505172040 57 316 4.0 9.0 0.00 0.00 0.00 63 1010.9
20260505171600 57 303 5.0 9.0 0.00 0.00 0.00 63 1010.9
20260505171039 57 301 3.0 6.0 0.00 0.00 0.00 63 1010.9
20260505170540 57 290 5.0 8.0 0.00 0.00 0.00 63 1010.9
20260505170039 57 5 2.0 9.0 0.00 0.00 0.00 63 1011.0
20260505165540 58 341 8.0 12.0 0.00 0.00 0.00 62 1011.0
20260505165039 58 270 3.0 6.0 0.00 0.00 0.00 62 1011.1
20260505164600 58 294 9.0 11.0 0.00 0.00 0.00 61 1011.1
20260505164039 59 275 5.0 9.0 0.00 0.00 0.00 60 1011.1
20260505163540 59 295 3.0 6.0 0.00 0.00 0.00 62 1011.0
20260505163040 58 252 2.0 7.0 0.00 0.00 0.00 62 1011.0
20260505162540 59 309 5.0 9.0 0.00 0.00 0.00 61 1011.1
20260505162059 60 287 3.0 7.0 0.00 0.00 0.00 60 1011.0
20260505161559 59 312 5.0 8.0 0.00 0.00 0.00 60 1011.1
20260505161039 59 329 5.0 9.0 0.00 0.00 0.00 59 1011.2
20260505160540 61 253 1.0 4.0 0.00 0.00 0.00 57 1011.1
20260505153040 60 300 5.0 11.0 0.00 0.00 0.00 58 1011.1
20260505152540 60 290 3.0 5.0 0.00 0.00 0.00 58 1011.1
20260505152040 61 265 4.0 5.0 0.00 0.00 0.00 58 1011.0
20260505151559 61 287 3.0 6.0 0.00 0.00 0.00 57 1011.2
20260505151039 61 153 2.0 4.0 0.00 0.00 0.00 57 1011.2
20260505150540 60 318 3.0 7.0 0.00 0.00 0.00 58 1011.2
20260505140340 60 297 3.0 6.0 0.00 0.00 0.00 59 1011.5
20260505130140 60 272 5.0 10.0 0.00 0.00 0.00 54 1011.8
20260505124640 61 293 2.0 5.0 0.00 0.00 0.00 55 1011.8
20260505124140 60 152 2.0 7.0 0.00 0.00 0.00 56 1011.9
20260505123640 60 284 5.0 11.0 0.00 0.00 0.00 55 1011.9
20260505123110 62 171 4.0 8.0 0.00 0.00 0.00 52 1012.0
20260505122610 61 145 3.0 5.0 0.00 0.00 0.00 55 1012.0
20260505122010 62 289 3.0 5.0 0.00 0.00 0.00 53 1012.0
20260505121440 61 275 4.0 7.0 0.00 0.00 0.00 55 1011.9
20260505121000 61 330 5.0 10.0 0.00 0.00 0.00 54 1011.9
20260505120440 61 281 3.0 9.0 0.00 0.00 0.00 54 1011.8
20260505115941 60 303 8.0 10.0 0.00 0.00 0.00 57 1011.9
20260505115500 60 315 8.0 10.0 0.00 0.00 0.00 57 1011.9
20260505114940 60 230 2.0 5.0 0.00 0.00 0.00 58 1012.0
20260505114440 59 204 4.0 10.0 0.00 0.00 0.00 57 1012.0
20260505113940 60 286 6.0 7.0 0.00 0.00 0.00 57 1012.1
20260505113440 59 249 6.0 14.0 0.00 0.00 0.00 58 1012.1
20260505112910 60 295 10.0 10.0 0.00 0.00 0.00 55 1012.0
20260505112310 60 76 5.0 6.0 0.00 0.00 0.00 59 1012.2
20260505111740 59 282 3.0 5.0 0.00 0.00 0.00 59 1012.4
20260505111240 60 312 5.0 7.0 0.00 0.00 0.00 57 1012.3
20260505110740 58 303 7.0 10.0 0.00 0.00 0.00 58 1012.3
20260505110240 60 352 4.0 6.0 0.00 0.00 0.00 55 1012.5
20260505102200 59 227 7.0 8.0 0.00 0.00 0.00 62 1012.7
20260505101700 59 83 1.0 3.0 0.00 0.00 0.00 62 1012.7
20260505101140 57 331 5.0 8.0 0.00 0.00 0.00 63 1012.7
20260505100640 59 296 2.0 9.0 0.00 0.00 0.00 61 1012.7
20260505100140 60 307 4.0 7.0 0.00 0.00 0.00 59 1012.8
20260505095640 59 243 2.0 6.0 0.00 0.00 0.00 61 1012.8
20260505095140 59 210 2.0 10.0 0.00 0.00 0.00 59 1012.9
20260505094700 60 318 2.0 2.0 0.00 0.00 0.00 59 1012.8
20260505094140 58 335 2.0 7.0 0.00 0.00 0.00 61 1012.9
20260505093641 59 79 2.0 4.0 0.00 0.00 0.00 62 1013.0
20260505093140 58 166 5.0 6.0 0.00 0.00 0.00 62 1012.9
20260505092700 57 263 4.0 6.0 0.00 0.00 0.00 64 1012.9
20260505092200 58 352 3.0 5.0 0.00 0.00 0.00 61 1012.9
20260505091610 59 238 4.0 9.0 0.00 0.00 0.00 62 1013.0
20260505091040 58 308 4.0 7.0 0.00 0.00 0.00 64 1013.0
20260505090600 58 323 2.0 7.0 0.00 0.00 0.00 63 1013.0
20260505090040 58 253 2.0 5.0 0.00 0.00 0.00 65 1013.0
20260505085540 58 303 4.0 7.0 0.00 0.00 0.00 65 1012.9
20260505085100 57 301 7.0 14.0 0.00 0.00 0.00 65 1013.0
20260505084540 58 283 3.0 7.0 0.00 0.00 0.00 65 1012.9
20260505084040 58 230 5.0 9.0 0.00 0.00 0.00 66 1012.9
20260505083600 57 293 5.0 8.0 0.00 0.00 0.00 68 1012.9
20260505083040 57 114 2.0 7.0 0.00 0.00 0.00 68 1012.9
20260505082540 57 289 2.0 4.0 0.00 0.00 0.00 71 1012.9
20260505082101 54 326 4.0 5.0 0.00 0.00 0.00 75 1012.9
20260505081540 53 312 6.0 9.0 0.00 0.00 0.00 75 1012.9
20260505081040 53 296 4.0 7.0 0.00 0.00 0.00 76 1012.9
20260505080600 53 321 7.0 10.0 0.00 0.00 0.00 76 1012.9
20260505080041 53 296 3.0 7.0 0.00 0.00 0.00 77 1012.7
20260505075540 53 92 3.0 9.0 0.00 0.00 0.00 77 1012.7
20260505075040 53 304 6.0 10.0 0.00 0.00 0.00 78 1012.7
20260505074540 53 291 8.0 11.0 0.00 0.00 0.00 78 1012.8
20260505074041 53 16 4.0 8.0 0.00 0.00 0.00 79 1012.9
20260505073541 52 306 4.0 7.0 0.00 0.00 0.00 80 1013.0
20260505073040 53 313 5.0 6.0 0.00 0.00 0.00 81 1013.0
20260505072540 52 226 1.0 6.0 0.00 0.00 0.00 82 1013.0
20260505072040 52 304 5.0 6.0 0.00 0.00 0.00 83 1013.1
20260505071540 52 317 2.0 5.0 0.00 0.00 0.00 83 1013.0
20260505071041 52 305 5.0 9.0 0.00 0.00 0.00 83 1013.1
20260505070540 52 292 4.0 10.0 0.00 0.00 0.00 84 1013.0
20260505070100 52 323 2.0 10.0 0.00 0.00 0.00 84 1013.1
20260505065540 52 300 5.0 8.0 0.00 0.00 0.00 84 1013.2
20260505065041 51 276 4.0 7.0 0.00 0.00 0.00 84 1013.3
20260505064540 52 336 4.0 6.0 0.00 0.00 0.00 85 1013.2
20260505064040 51 309 3.0 5.0 0.00 0.00 0.00 85 1013.3
20260505063540 51 318 4.0 7.0 0.00 0.00 0.00 85 1013.3
20260505063040 51 285 2.0 3.0 0.00 0.00 0.00 85 1013.4
20260505062540 51 295 2.0 3.0 0.00 0.00 0.00 86 1013.5
20260505062040 51 291 3.0 7.0 0.00 0.00 0.00 86 1013.5
20260505061541 51 352 4.0 10.0 0.00 0.00 0.00 86 1013.5
20260505061040 51 341 5.0 10.0 0.00 0.00 0.00 86 1013.5
20260505060542 51 317 5.0 6.0 0.00 0.00 0.00 86 1013.4
20260505060040 51 311 5.0 7.0 0.00 0.00 0.00 86 1013.4
20260505055540 51 9 3.0 7.0 0.00 0.00 0.00 86 1013.4
20260505055040 51 315 4.0 10.0 0.00 0.00 0.00 86 1013.5
20260505054540 51 336 5.0 10.0 0.00 0.00 0.00 86 1013.5
20260505054041 51 305 3.0 5.0 0.00 0.00 0.00 86 1013.5
20260505053600 51 11 4.0 6.0 0.00 0.00 0.00 86 1013.4
20260505053040 51 292 2.0 5.0 0.00 0.00 0.00 86 1013.4
20260505052541 51 323 2.0 6.0 0.00 0.00 0.00 86 1013.3
20260505052040 51 323 5.0 7.0 0.00 0.00 0.00 86 1013.3
20260505051540 51 325 3.0 5.0 0.00 0.00 0.00 86 1013.2
20260505051040 51 309 3.0 6.0 0.00 0.00 0.00 86 1013.2
20260505050540 51 303 6.0 9.0 0.00 0.00 0.00 86 1013.2
20260505041541 51 303 3.0 5.0 0.00 0.08 0.00 86 1013.1
20260505041041 51 311 5.0 10.0 0.00 0.08 0.00 86 1013.0
20260505040540 51 235 3.0 6.0 0.00 0.08 0.00 86 1013.1
20260505040041 51 300 2.0 4.0 0.00 0.08 0.00 86 1013.1
20260505035541 51 301 4.0 8.0 0.00 0.08 0.00 86 1013.2
20260505035041 51 323 4.0 8.0 0.00 0.08 0.00 86 1013.2
20260505034601 51 314 5.0 7.0 0.00 0.08 0.00 86 1013.1
20260505034041 51 341 5.0 9.0 0.00 0.08 0.00 86 1013.1
20260505033601 51 295 3.0 5.0 0.00 0.08 0.00 86 1013.1
20260505033041 51 312 3.0 9.0 0.00 0.08 0.00 86 1013.2
20260505032541 51 213 3.0 4.0 0.00 0.08 0.00 86 1013.2
20260505032101 51 90 1.0 3.0 0.00 0.08 0.00 86 1013.2
20260505031541 51 278 3.0 7.0 0.00 0.08 0.00 86 1013.3
20260505031041 51 308 5.0 6.0 0.00 0.08 0.00 86 1013.3
20260505030541 51 55 4.0 6.0 0.00 0.08 0.00 86 1013.4
20260505030041 51 325 3.0 5.0 0.00 0.08 0.00 86 1013.4
20260505025542 51 346 3.0 7.0 0.00 0.08 0.00 86 1013.3
20260505025041 51 312 4.0 5.0 0.00 0.08 0.00 86 1013.4
20260505024601 51 299 1.0 5.0 0.00 0.08 0.00 86 1013.3
20260505024041 51 312 4.0 5.0 0.00 0.08 0.00 86 1013.3
20260505023540 51 283 4.0 10.0 0.00 0.08 0.00 86 1013.3
20260505023041 51 306 4.0 12.0 0.00 0.08 0.00 86 1013.3
20260505022541 51 311 5.0 9.0 0.00 0.08 0.00 86 1013.3
20260505022041 51 334 3.0 5.0 0.00 0.08 0.00 86 1013.4
20260505021541 51 336 5.0 7.0 0.00 0.08 0.00 85 1013.4
20260505021040 51 282 4.0 6.0 0.00 0.08 0.00 85 1013.5
20260505020540 51 324 4.0 4.0 0.00 0.08 0.00 85 1013.6
20260505020041 51 312 2.0 5.0 0.00 0.08 0.00 85 1013.6
20260505015541 51 309 1.0 5.0 0.00 0.08 0.00 85 1013.6
20260505015041 51 284 4.0 8.0 0.00 0.08 0.00 85 1013.7
20260505014540 51 324 4.0 9.0 0.00 0.08 0.00 85 1013.6
20260505014201 51 290 5.0 10.0 0.00 0.08 0.00 85 1013.5